User: anonymous   Login
Location: Mentone
(34.5413°N, 85.5351°W)
Time: 04:13:35
(UTC-05:00)
Language:

UOSAT-12 - Orbit

View from above orbital plane
View from above orbital plane
View from above satellite
View from above satellite

Ground track
Ground track

The orbit data is extracted from the following two-line orbital elements,

1 25693U 99021A   16180.41823884 -.00000067  00000-0  96925-5 0  9990
2 25693  64.5556 135.9237 0005718 227.0654 132.9971 14.80659830927784
Epoch (UTC): 28 June 2016 10:02:15
Eccentricity: 0.0005718
inclination: 64.5556°
perigee height: 623 km
apogee height: 631 km
right ascension of ascending node: 135.9237°
argument of perigee: 227.0654°
revolutions per day: 14.80659830
mean anomaly at epoch: 132.9971°
orbit number at epoch: 92778

The dashed part of the orbit path shows where the satellite is in the earth's shadow,  

DLR